Zurück zum Katalog

FENGYUN 1C DEB

AktivSSO
NORAD 31758·DEBRIS·🇨🇳 China

Gestartet May 10, 1999 von Taiyuan Satellite Launch Center

Loading…

Nächste Überflüge (nächste 24 Stunden)

TLE

AktuellSource: Space-Track

Epoche: Sep 14, 2026, 18:08 UTC

1 31758U 99025CFH 26257.75592841  .00011763  00000-0  17954-2 0  9998
2 31758  98.0605 258.6693 0292396 324.1725  34.0162 14.49075785981899

Verfolge FENGYUN 1C DEB in Echtzeit mit AllMySat

Download on the App Store